• In Deutschland
  • Länderverzeichnis
  • Für 7 Tage
  • Wassertemperatur
  • Satellitenkarten
  • Wetterkarte
  • Widgets
  • user-avatar
    Anmelden

    Stündliche Wetter Goldene Küste

    Heute, 24 September, Sonntag

    Zeit Temperatur Niederschläge Wind Luftdruck Luftfeuchtigkeit
    00:00 +21°C° 0 mm 6 m/S 756 mmHg 73%
    01:00 +21°C° 0 mm 6 m/S 756 mmHg 70%
    02:00 +20°C° 0 mm 6 m/S 755 mmHg 69%
    03:00 +20°C° 0 mm 6 m/S 755 mmHg 68%
    04:00 +20°C° 0 mm 6 m/S 755 mmHg 67%
    05:00 +20°C° 0 mm 6 m/S 755 mmHg 64%
    06:00 +21°C° 0 mm 6 m/S 756 mmHg 60%
    07:00 +22°C° 0 mm 6 m/S 756 mmHg 56%
    08:00 +26°C° 0 mm 7 m/S 756 mmHg 47%
    09:00 +29°C° 0 mm 7 m/S 756 mmHg 37%
    10:00 +34°C° 0 mm 7 m/S 756 mmHg 27%
    11:00 +35°C° 0 mm 7 m/S 755 mmHg 24%
    12:00 +38°C° 0 mm 8 m/S 755 mmHg 21%
    13:00 +40°C° 0 mm 8 m/S 754 mmHg 18%
    14:00 +39°C° 0 mm 8 m/S 753 mmHg 21%
    15:00 +38°C° 0 mm 9 m/S 753 mmHg 25%
    16:00 +35°C° 0 mm 9 m/S 752 mmHg 29%
    17:00 +33°C° 0 mm 9 m/S 753 mmHg 36%
    18:00 +31°C° 0 mm 9 m/S 753 mmHg 44%
    19:00 +28°C° 0 mm 9 m/S 753 mmHg 51%
    20:00 +27°C° 0 mm 8 m/S 754 mmHg 51%
    21:00 +27°C° 0 mm 8 m/S 754 mmHg 51%
    22:00 +26°C° 0 mm 8 m/S 755 mmHg 51%
    23:00 +26°C° 0 mm 7 m/S 755 mmHg 52%

    Morgen, 25 September, Montag

    Zeit Temperatur Niederschläge Wind Luftdruck Luftfeuchtigkeit
    00:00 +24°C° 0 mm 7 m/S 755 mmHg 52%
    01:00 +24°C° 0 mm 7 m/S 755 mmHg 53%
    02:00 +23°C° 0 mm 6 m/S 754 mmHg 54%
    03:00 +22°C° 0 mm 6 m/S 754 mmHg 55%
    04:00 +22°C° 0 mm 6 m/S 754 mmHg 56%
    05:00 +23°C° 0 mm 6 m/S 755 mmHg 53%
    06:00 +23°C° 0 mm 5 m/S 756 mmHg 50%
    07:00 +25°C° 0 mm 5 m/S 756 mmHg 46%
    08:00 +28°C° 0 mm 5 m/S 756 mmHg 38%
    09:00 +30°C° 0 mm 6 m/S 756 mmHg 30%
    10:00 +34°C° 0 mm 6 m/S 757 mmHg 23%
    11:00 +35°C° 0 mm 6 m/S 756 mmHg 20%
    12:00 +38°C° 0 mm 7 m/S 755 mmHg 18%
    13:00 +39°C° 0 mm 7 m/S 754 mmHg 16%
    14:00 +39°C° 0 mm 7 m/S 754 mmHg 18%
    15:00 +38°C° 0 mm 8 m/S 753 mmHg 20%
    16:00 +38°C° 0 mm 8 m/S 753 mmHg 23%
    17:00 +34°C° 0 mm 8 m/S 753 mmHg 29%
    18:00 +32°C° 0 mm 7 m/S 754 mmHg 35%
    19:00 +29°C° 0 mm 7 m/S 754 mmHg 42%
    20:00 +28°C° 0 mm 7 m/S 755 mmHg 44%
    21:00 +27°C° 0 mm 6 m/S 755 mmHg 47%
    22:00 +27°C° 0 mm 6 m/S 755 mmHg 49%
    23:00 +26°C° 0 mm 6 m/S 755 mmHg 49%

    übermorgen, 26 September, Dienstag

    Zeit Temperatur Niederschläge Wind Luftdruck Luftfeuchtigkeit
    00:00 +26°C° 0 mm 5 m/S 755 mmHg 48%
    01:00 +25°C° 0 mm 5 m/S 755 mmHg 47%
    02:00 +25°C° 0 mm 4 m/S 755 mmHg 49%
    03:00 +23°C° 0 mm 4 m/S 755 mmHg 51%
    04:00 +24°C° 0 mm 3 m/S 755 mmHg 52%
    05:00 +24°C° 0 mm 3 m/S 756 mmHg 55%
    06:00 +24°C° 0 mm 3 m/S 757 mmHg 57%
    07:00 +24°C° 0 mm 3 m/S 757 mmHg 60%
    08:00 +26°C° 0 mm 3 m/S 757 mmHg 53%
    09:00 +29°C° 0 mm 3 m/S 758 mmHg 47%
    10:00 +31°C° 0 mm 3 m/S 758 mmHg 40%
    11:00 +33°C° 0 mm 3 m/S 757 mmHg 37%
    12:00 +34°C° 0 mm 3 m/S 756 mmHg 33%
    13:00 +36°C° 0 mm 4 m/S 756 mmHg 30%
    14:00 +33°C° 0 mm 4 m/S 756 mmHg 39%
    15:00 +30°C° 0 mm 4 m/S 755 mmHg 47%
    16:00 +27°C° 0 mm 5 m/S 755 mmHg 56%
    17:00 +25°C° 0 mm 4 m/S 756 mmHg 65%
    18:00 +24°C° 0 mm 3 m/S 756 mmHg 73%
    19:00 +21°C° 0 mm 3 m/S 757 mmHg 81%
    20:00 +21°C° 0 mm 3 m/S 757 mmHg 83%
    21:00 +21°C° 0 mm 3 m/S 758 mmHg 85%
    22:00 +20°C° 0 mm 3 m/S 759 mmHg 87%
    23:00 +20°C° 0 mm 3 m/S 758 mmHg 89%

    27 September, Mittwoch

    Zeit Temperatur Niederschläge Wind Luftdruck Luftfeuchtigkeit
    00:00 +20°C° 0 mm 3 m/S 758 mmHg 90%
    01:00 +20°C° 0 mm 3 m/S 758 mmHg 91%
    02:00 +20°C° 0 mm 3 m/S 758 mmHg 91%
    03:00 +20°C° 0 mm 2 m/S 757 mmHg 91%
    04:00 +20°C° 0 mm 2 m/S 757 mmHg 91%
    05:00 +21°C° 0 mm 2 m/S 758 mmHg 88%
    06:00 +23°C° 0 mm 1 m/S 758 mmHg 86%
    07:00 +24°C° 0 mm 1 m/S 758 mmHg 83%
    08:00 +26°C° 0 mm 2 m/S 758 mmHg 71%
    09:00 +29°C° 0 mm 3 m/S 758 mmHg 60%
    10:00 +31°C° 0 mm 3 m/S 757 mmHg 48%
    11:00 +34°C° 0 mm 4 m/S 757 mmHg 42%
    12:00 +36°C° 0 mm 5 m/S 756 mmHg 35%
    13:00 +38°C° 0 mm 6 m/S 755 mmHg 28%
    14:00 +36°C° 0 mm 7 m/S 754 mmHg 33%
    15:00 +35°C° 0 mm 7 m/S 754 mmHg 37%
    16:00 +34°C° 0 mm 7 m/S 753 mmHg 41%
    17:00 +32°C° 0 mm 7 m/S 754 mmHg 51%
    18:00 +29°C° 0 mm 7 m/S 754 mmHg 61%
    19:00 +26°C° 0 mm 7 m/S 754 mmHg 72%
    20:00 +26°C° 0 mm 7 m/S 754 mmHg 67%
    21:00 +26°C° 0 mm 7 m/S 754 mmHg 63%
    22:00 +27°C° 0 mm 7 m/S 754 mmHg 58%
    23:00 +27°C° 0 mm 7 m/S 754 mmHg 54%

    28 September, Donnerstag

    Zeit Temperatur Niederschläge Wind Luftdruck Luftfeuchtigkeit
    00:00 +27°C° 0 mm 7 m/S 754 mmHg 49%
    01:00 +27°C° 0 mm 6 m/S 753 mmHg 45%
    02:00 +27°C° 0 mm 6 m/S 754 mmHg 44%
    03:00 +27°C° 0 mm 5 m/S 754 mmHg 43%
    04:00 +26°C° 0 mm 5 m/S 755 mmHg 42%
    05:00 +27°C° 0 mm 4 m/S 755 mmHg 42%
    06:00 +28°C° 0 mm 4 m/S 756 mmHg 43%
    07:00 +28°C° 0 mm 4 m/S 757 mmHg 43%
    08:00 +32°C° 0 mm 4 m/S 757 mmHg 37%
    09:00 +34°C° 0 mm 4 m/S 757 mmHg 31%
    10:00 +36°C° 0 mm 4 m/S 757 mmHg 25%
    11:00 +37°C° 0 mm 4 m/S 756 mmHg 23%
    12:00 +39°C° 0 mm 5 m/S 756 mmHg 21%
    13:00 +40°C° 0 mm 5 m/S 755 mmHg 18%
    14:00 +37°C° 0 mm 5 m/S 755 mmHg 23%
    15:00 +36°C° 0 mm 4 m/S 755 mmHg 27%
    16:00 +34°C° 0 mm 4 m/S 755 mmHg 32%
    17:00 +30°C° 0 mm 4 m/S 756 mmHg 42%
    18:00 +27°C° 0 mm 5 m/S 757 mmHg 52%
    19:00 +25°C° 0 mm 5 m/S 758 mmHg 63%
    20:00 +23°C° 0 mm 5 m/S 758 mmHg 65%
    21:00 +23°C° 0 mm 5 m/S 758 mmHg 68%
    22:00 +22°C° 0 mm 5 m/S 759 mmHg 71%
    23:00 +21°C° 0 mm 5 m/S 758 mmHg 75%

    29 September, Freitag

    Zeit Temperatur Niederschläge Wind Luftdruck Luftfeuchtigkeit
    00:00 +21°C° 0 mm 4 m/S 758 mmHg 78%
    01:00 +20°C° 0 mm 4 m/S 758 mmHg 82%
    02:00 +20°C° 0 mm 3 m/S 758 mmHg 84%
    03:00 +20°C° 0 mm 3 m/S 758 mmHg 86%
    04:00 +19°C° 0 mm 2 m/S 758 mmHg 88%
    05:00 +21°C° 0 mm 2 m/S 758 mmHg 84%
    06:00 +23°C° 0 mm 2 m/S 759 mmHg 80%
    07:00 +24°C° 0 mm 2 m/S 760 mmHg 76%
    08:00 +26°C° 0 mm 2 m/S 759 mmHg 66%
    09:00 +29°C° 0 mm 2 m/S 759 mmHg 57%
    10:00 +32°C° 0 mm 2 m/S 759 mmHg 47%
    11:00 +34°C° 0 mm 3 m/S 758 mmHg 45%
    12:00 +34°C° 0 mm 3 m/S 758 mmHg 42%
    13:00 +35°C° 0 mm 3 m/S 757 mmHg 39%
    14:00 +33°C° 0 mm 3 m/S 757 mmHg 47%
    15:00 +30°C° 0 mm 4 m/S 756 mmHg 55%
    16:00 +29°C° 0 mm 4 m/S 756 mmHg 63%
    17:00 +27°C° 0 mm 4 m/S 756 mmHg 72%
    18:00 +25°C° 0 mm 4 m/S 756 mmHg 80%
    19:00 +23°C° 0 mm 4 m/S 757 mmHg 89%
    20:00 +22°C° 0 mm 4 m/S 757 mmHg 89%
    21:00 +22°C° 0 mm 4 m/S 757 mmHg 89%
    22:00 +22°C° 0 mm 4 m/S 757 mmHg 89%
    23:00 +21°C° 0 mm 4 m/S 757 mmHg 89%
    Mehr zeigen